Regional Weather Roundup
Issued by NWS Little Rock, AR

Home | Current Version | Previous Version | Text Only | Print | Product List | Glossary Off
Versions: 1 2 3 4 5 6 7 8 9 10 11 12 13 14 15 16 17 18 19 20 21 22 23 24 25 26 27 28 29 30 31 32 33 34 35 36 37 38 39 40 41 42 43 44 45 46 47 48

000
ASUS44 KLZK 222105
RWRLZK

WEATHER ROUNDUP FOR ARKANSAS
NATIONAL WEATHER SERVICE LITTLE ROCK AR
400 PM CDT FRI MAY 22 2015

NOTE: "FAIR" INDICATES FEW OR NO CLOUDS BELOW 12,000 FEET WITH NO
SIGNIFICANT WEATHER AND/OR OBSTRUCTIONS TO VISIBILITY.

ARZ001-003-010-029-222200-
NORTHWEST ARKANSAS

CITY           SKY/WX    TMP DP  RH WIND       PRES   REMARKS
FAYETTEVILLE   CLOUDY    63  48  58 SE6       30.20F
FORT SMITH     LGT RAIN  60  54  80 E7        30.20F
HARRISON       CLOUDY    64  48  56 E7        30.25S
BENTONVILLE    CLOUDY    64  46  52 SE8       30.21F
ROGERS         CLOUDY    65  48  54 E9        30.21F
SILOAM SPGS    CLOUDY    64  50  59 SE7       30.21S
HIGHFILL       CLOUDY    66  50  56 E10       30.19F
SPRINGDALE     PTSUNNY   63  52  67 E9        30.22F
$$

ARZ004-005-016-222200-
NORTH CENTRAL ARKANSAS

CITY           SKY/WX    TMP DP  RH WIND       PRES   REMARKS
BATESVILLE     CLOUDY    68  50  52 E7        30.25F
FLIPPIN        CLOUDY    66  46  48 E6        30.23F
MTN HOME       CLOUDY    67  46  47 SE6       30.24F
$$

ARZ040-041-222200-
WEST CENTRAL ARKANSAS

CITY           SKY/WX    TMP DP  RH WIND       PRES   REMARKS
MENA           CLOUDY    68  55  64 NE6       30.21R
MOUNT IDA      CLOUDY    69  53  56 VRB3      30.19F
$$

ARZ009-017-025-026-028-222200-
NORTHEAST ARKANSAS

CITY           SKY/WX    TMP DP  RH WIND       PRES   REMARKS
CORNING          N/A     70  48  46 CALM      30.27S
JONESBORO      CLOUDY    69  51  52 NE7       30.26F
NEWPORT        PTSUNNY   69  52  54 E6        30.26F
WALNUT RIDGE   PTSUNNY   70  46  43 CALM      30.26F
BLYTHEVILLE    MOSUNNY   71  47  42 CALM      30.26F
$$

ARZ022-023-033-042-044-222200-
CENTRAL ARKANSAS

CITY           SKY/WX    TMP DP  RH WIND       PRES   REMARKS
LITTLE ROCK    PTSUNNY   71  48  43 E8        30.24F
N LITTLE ROCK  PTSUNNY   70  52  52 E13       30.24F
JACKSONVILLE   PTSUNNY   73  51  45 E10       30.23S
HOT SPRINGS    CLOUDY    71  51  49 E10       30.20F
RUSSELLVILLE   CLOUDY    68  51  54 VRB7      30.22F
CLINTON        FAIR      66  50  55 SE5       30.26F
$$

ARZ036-222200-
EAST ARKANSAS

CITY           SKY/WX    TMP DP  RH WIND       PRES   REMARKS
WEST MEMPHIS   MOSUNNY   73  50  44 N8        30.23F
$$

ARZ050-053-066-070-073-222200-
SOUTHWEST ARKANSAS

CITY           SKY/WX    TMP DP  RH WIND       PRES   REMARKS
ARKADELPHIA    FAIR      74  57  55 VRB5      30.20F
CAMDEN         SUNNY     75  50  41 N6        30.19F
EL DORADO      SUNNY     74  55  51 E5        30.19F
DE QUEEN       CLOUDY    69  54  58 E7        30.16F
$$

ARZ056-057-069-222200-
SOUTHEAST ARKANSAS

CITY           SKY/WX    TMP DP  RH WIND       PRES   REMARKS
PINE BLUFF     MOSUNNY   72  53  51 E9        30.22F
STUTTGART      MOSUNNY   72  52  49 MISG      30.23F
MONTICELLO     SUNNY     74  53  48 NE9       30.20F

$$





USA.gov is the U.S. government's official web portal to all federal, state and local government web resources and services.